,,,PA_Meas_PMT16A,,PR_Meas_QMR101_102,,RH_Meas_QMH101,,SR_Meas_QMS101,,TA_Meas_QMH101,,GenWind,,GenWind,
date,time,status,PA,status,PR,status,RH,status,SR,status,TA,status,DirAvg,status,SpdAvg,
2010-04-11, 00:00:04,VALID,1009.12,VALID,0,VALID,98.8069,VALID,0,VALID,24.7074,VALID,10,VALID,0,
2010-04-11, 00:01:04,VALID,1009.11,VALID,0,VALID,98.8145,VALID,0,VALID,24.686,VALID,10,VALID,0.165625,
2010-04-11, 00:02:04,VALID,1009.08,VALID,0,VALID,98.8221,VALID,0.105969,VALID,24.6879,VALID,10,VALID,0.162109,
2010-04-11, 00:03:04,VALID,1009.11,VALID,0,VALID,98.8145,VALID,0,VALID,24.6666,VALID,10,VALID,0,
2010-04-11, 00:04:04,VALID,1009.11,VALID,0,VALID,98.8298,VALID,0,VALID,24.6666,VALID,10,VALID,0,
2010-04-11, 00:05:04,VALID,1009.1,VALID,0,VALID,98.8145,VALID,0,VALID,24.6879,VALID,10,VALID,0,
2010-04-11, 00:06:04,VALID,1009.12,VALID,0,VALID,98.8374,VALID,0,VALID,24.6471,VALID,10,VALID,0,
2010-04-11, 00:07:04,VALID,1009.08,VALID,0,VALID,98.8298,VALID,0.105969,VALID,24.6471,VALID,10,VALID,0,
2010-04-11, 00:08:04,VALID,1009.07,VALID,0,VALID,98.8526,VALID,0,VALID,24.6666,VALID,10,VALID,0,
2010-04-11, 00:09:04,VALID,1009.05,VALID,0,VALID,98.8679,VALID,0,VALID,24.6684,VALID,10,VALID,0,
2010-04-11, 00:10:04,VALID,1009.04,VALID,0,VALID,98.8831,VALID,0,VALID,24.6471,VALID,10,VALID,0,
2010-04-11, 00:11:04,VALID,1009.06,VALID,0,VALID,98.8831,VALID,0,VALID,24.6684,VALID,10,VALID,0,
2010-04-11, 00:12:04,VALID,1009.05,VALID,0,VALID,98.8984,VALID,0,VALID,24.6276,VALID,10,VALID,0,
2010-04-11, 00:13:04,VALID,1009.03,VALID,0,VALID,98.8755,VALID,0,VALID,24.6276,VALID,10,VALID,0,
2010-04-11, 00:14:04,VALID,1009.03,VALID,0,VALID,98.8755,VALID,0,VALID,24.6294,VALID,10,VALID,0,
2010-04-11, 00:15:04,VALID,1009,VALID,0,VALID,98.906,VALID,0.105969,VALID,24.6276,VALID,10,VALID,0,
2010-04-11, 00:16:04,VALID,1008.96,VALID,0,VALID,98.8831,VALID,0,VALID,24.6276,VALID,10,VALID,0,
2010-04-11, 00:17:04,VALID,1008.98,VALID,0,VALID,98.8908,VALID,0.105969,VALID,24.6294,VALID,10,VALID,0,
2010-04-11, 00:18:04,VALID,1008.95,VALID,0,VALID,98.9137,VALID,0,VALID,24.6081,VALID,10,VALID,0,
2010-04-11, 00:19:04,VALID,1008.94,VALID,0,VALID,98.906,VALID,0.105969,VALID,24.6099,VALID,10,VALID,0,
2010-04-11, 00:20:04,VALID,1008.92,VALID,0,VALID,98.9137,VALID,0.105969,VALID,24.6099,VALID,10,VALID,0,
2010-04-11, 00:21:04,VALID,1008.9,VALID,0,VALID,98.8908,VALID,0,VALID,24.5905,VALID,10,VALID,0,
2010-04-11, 00:22:04,VALID,1008.87,VALID,0,VALID,98.9137,VALID,0,VALID,24.571,VALID,10,VALID,0.241016,
2010-04-11, 00:23:04,VALID,1008.84,VALID,0,VALID,98.9213,VALID,0,VALID,24.5301,VALID,10,VALID,0.293359,
2010-04-11, 00:24:04,VALID,1008.84,VALID,0,VALID,98.9289,VALID,0,VALID,24.5515,VALID,10,VALID,0.148047,
2010-04-11, 00:25:04,VALID,1008.86,VALID,0,VALID,98.8984,VALID,0,VALID,24.5515,VALID,10,VALID,0,
2010-04-11, 00:26:04,VALID,1008.86,VALID,0,VALID,98.906,VALID,0.105969,VALID,24.532,VALID,10,VALID,0,
2010-04-11, 00:27:04,VALID,1008.89,VALID,0,VALID,98.9213,VALID,0.105969,VALID,24.5301,VALID,10,VALID,0,
2010-04-11, 00:28:04,VALID,1008.9,VALID,0,VALID,98.9213,VALID,0.105969,VALID,24.5106,VALID,10,VALID,0,
2010-04-11, 00:29:04,VALID,1008.89,VALID,0,VALID,98.9365,VALID,0.105969,VALID,24.532,VALID,10,VALID,0,
2010-04-11, 00:30:04,VALID,1008.86,VALID,0,VALID,98.9289,VALID,0.105969,VALID,24.5106,VALID,10,VALID,0,
2010-04-11, 00:31:04,VALID,1008.86,VALID,0,VALID,98.9213,VALID,0,VALID,24.532,VALID,10,VALID,0,
2010-04-11, 00:32:04,VALID,1008.86,VALID,0,VALID,98.9442,VALID,0,VALID,24.5125,VALID,10,VALID,0,
2010-04-11, 00:33:04,VALID,1008.83,VALID,0,VALID,98.9518,VALID,0,VALID,24.5125,VALID,10,VALID,0,
2010-04-11, 00:34:04,VALID,1008.79,VALID,0,VALID,98.9442,VALID,0,VALID,24.4735,VALID,10,VALID,0,
2010-04-11, 00:35:04,VALID,1008.79,VALID,0,VALID,98.9365,VALID,0.105969,VALID,24.4522,VALID,10,VALID,0.211719,
2010-04-11, 00:36:04,VALID,1008.79,VALID,0,VALID,98.9442,VALID,0,VALID,24.454,VALID,10,VALID,0.411719,
2010-04-11, 00:37:04,VALID,1008.78,VALID,0,VALID,98.9365,VALID,0.105969,VALID,24.4132,VALID,10,VALID,0.455859,
2010-04-11, 00:38:04,VALID,1008.78,VALID,0,VALID,98.9365,VALID,0.105969,VALID,24.415,VALID,10,VALID,0.397656,
2010-04-11, 00:39:04,VALID,1008.78,VALID,0,VALID,98.9442,VALID,0.105969,VALID,24.3742,VALID,10,VALID,0.253125,
2010-04-11, 00:40:04,VALID,1008.78,VALID,0,VALID,98.9365,VALID,0.105969,VALID,24.3547,VALID,10,VALID,0,
2010-04-11, 00:41:04,VALID,1008.75,VALID,0,VALID,98.9365,VALID,0.105969,VALID,24.3547,VALID,10,VALID,0,
2010-04-11, 00:42:04,VALID,1008.75,VALID,0,VALID,98.9365,VALID,0.105969,VALID,24.3352,VALID,10,VALID,0,
2010-04-11, 00:43:04,VALID,1008.69,VALID,0,VALID,98.9594,VALID,0,VALID,24.3158,VALID,10,VALID,0,
2010-04-11, 00:44:04,VALID,1008.69,VALID,0,VALID,98.9594,VALID,0.105969,VALID,24.3158,VALID,10,VALID,0,
2010-04-11, 00:45:04,VALID,1008.69,VALID,0,VALID,98.9747,VALID,0.105969,VALID,24.3158,VALID,10,VALID,0,
2010-04-11, 00:46:04,VALID,1008.65,VALID,0,VALID,98.9518,VALID,0.105969,VALID,24.2963,VALID,10,VALID,0,
2010-04-11, 00:47:04,VALID,1008.68,VALID,0,VALID,98.9747,VALID,0.105969,VALID,24.3158,VALID,10,VALID,0,
2010-04-11, 00:48:04,VALID,1008.65,VALID,0,VALID,98.9823,VALID,0,VALID,24.3176,VALID,10,VALID,0,
2010-04-11, 00:49:04,VALID,1008.64,VALID,0,VALID,99.0052,VALID,0.105969,VALID,24.2981,VALID,10,VALID,0,
2010-04-11, 00:50:04,VALID,1008.62,VALID,0,VALID,99.0128,VALID,0,VALID,24.2786,VALID,10,VALID,0,
2010-04-11, 00:51:04,VALID,1008.57,VALID,0,VALID,98.9899,VALID,0,VALID,24.2768,VALID,10,VALID,0,
2010-04-11, 00:52:04,VALID,1008.55,VALID,0,VALID,99.0128,VALID,0,VALID,24.2573,VALID,10,VALID,0,
2010-04-11, 00:53:04,VALID,1008.52,VALID,0,VALID,99.0128,VALID,0.105969,VALID,24.2378,VALID,10,VALID,0,
2010-04-11, 00:54:04,VALID,1008.55,VALID,0,VALID,99.0128,VALID,0.105969,VALID,24.2591,VALID,10,VALID,0,
2010-04-11, 00:55:04,VALID,1008.5,VALID,0,VALID,99.0128,VALID,0,VALID,24.2396,VALID,10,VALID,0,
2010-04-11, 00:56:04,VALID,1008.49,VALID,0,VALID,99.0052,VALID,0.105969,VALID,24.2378,VALID,10,VALID,0,
2010-04-11, 00:57:04,VALID,1008.47,VALID,0,VALID,99.0204,VALID,0,VALID,24.2183,VALID,10,VALID,0,
2010-04-11, 00:58:04,VALID,1008.46,VALID,0,VALID,99.028,VALID,0,VALID,24.1988,VALID,10,VALID,0,
2010-04-11, 00:59:04,VALID,1008.42,VALID,0,VALID,99.028,VALID,0.105969,VALID,24.1988,VALID,10,VALID,0,
2010-04-11, 01:00:04,VALID,1008.41,VALID,0,VALID,99.0052,VALID,0.105969,VALID,24.2202,VALID,10,VALID,0,
2010-04-11, 01:01:04,VALID,1008.39,VALID,0,VALID,99.028,VALID,0.105969,VALID,24.2183,VALID,10,VALID,0.3375,
2010-04-11, 01:02:04,VALID,1008.41,VALID,0,VALID,99.0052,VALID,0.105969,VALID,24.2378,VALID,13,VALID,0.284375,
2010-04-11, 01:03:04,VALID,1008.37,VALID,0,VALID,99.0052,VALID,0.105969,VALID,24.2573,VALID,13,VALID,0.302734,
2010-04-11, 01:04:04,VALID,1008.36,VALID,0,VALID,98.9747,VALID,0.105969,VALID,24.2963,VALID,13,VALID,0.425391,
2010-04-11, 01:05:04,VALID,1008.32,VALID,0,VALID,98.9899,VALID,0.105969,VALID,24.3158,VALID,39,VALID,0.60625,
2010-04-11, 01:06:04,VALID,1008.31,VALID,0,VALID,98.9823,VALID,0,VALID,24.3158,VALID,58,VALID,0.46875,
2010-04-11, 01:07:04,VALID,1008.3,VALID,0,VALID,98.9975,VALID,0.105969,VALID,24.3547,VALID,95,VALID,0.898438,
2010-04-11, 01:08:04,VALID,1008.31,VALID,0,VALID,99.028,VALID,0,VALID,24.3547,VALID,83,VALID,0.496484,
2010-04-11, 01:09:04,VALID,1008.31,VALID,0,VALID,99.0433,VALID,0.105969,VALID,24.3352,VALID,66,VALID,0.554297,
2010-04-11, 01:10:04,VALID,1008.31,VALID,0,VALID,99.0509,VALID,0,VALID,24.3352,VALID,62,VALID,0.503125,
2010-04-11, 01:11:04,VALID,1008.28,VALID,0,VALID,99.0814,VALID,0.105969,VALID,24.3352,VALID,62,VALID,0.172266,
2010-04-11, 01:12:04,VALID,1008.29,VALID,0,VALID,99.0662,VALID,0.105969,VALID,24.3352,VALID,62,VALID,0.0644531,
2010-04-11, 01:13:04,VALID,1008.27,VALID,0,VALID,99.0662,VALID,0.105969,VALID,24.3158,VALID,62,VALID,0.30625,
2010-04-11, 01:14:04,VALID,1008.22,VALID,0,VALID,99.0738,VALID,0,VALID,24.3158,VALID,61,VALID,0.317578,
2010-04-11, 01:15:04,VALID,1008.22,VALID,0,VALID,99.0662,VALID,0.105969,VALID,24.2963,VALID,61,VALID,0.221484,
2010-04-11, 01:16:04,VALID,1008.2,VALID,0,VALID,99.0585,VALID,0.105969,VALID,24.3176,VALID,61,VALID,0.608203,
2010-04-11, 01:17:04,VALID,1008.15,VALID,0,VALID,99.0814,VALID,0.105969,VALID,24.2981,VALID,61,VALID,0.398047,
2010-04-11, 01:18:04,VALID,1008.11,VALID,0,VALID,99.0814,VALID,0,VALID,24.2573,VALID,61,VALID,0.350781,
2010-04-11, 01:19:04,VALID,1008.15,VALID,0,VALID,99.0585,VALID,0,VALID,24.2573,VALID,61,VALID,0.304297,
2010-04-11, 01:20:04,VALID,1008.09,VALID,0,VALID,98.9823,VALID,0.105969,VALID,24.2573,VALID,61,VALID,0.280078,
2010-04-11, 01:21:04,VALID,1008.08,VALID,0,VALID,98.9365,VALID,0.105969,VALID,24.2573,VALID,61,VALID,0.0242187,
2010-04-11, 01:22:04,VALID,1008.1,VALID,0,VALID,98.9594,VALID,0.105969,VALID,24.2591,VALID,61,VALID,0,
2010-04-11, 01:23:04,VALID,1008.1,VALID,0,VALID,98.9442,VALID,0.105969,VALID,24.2378,VALID,25,VALID,0.410937,
2010-04-11, 01:24:04,VALID,1008.09,VALID,0,VALID,98.9442,VALID,0,VALID,24.2396,VALID,19,VALID,0.501953,
2010-04-11, 01:25:04,VALID,1008.03,VALID,0,VALID,98.9442,VALID,0.105969,VALID,24.2183,VALID,19,VALID,0,
2010-04-11, 01:26:04,VALID,1007.99,VALID,0,VALID,98.9442,VALID,0,VALID,24.2396,VALID,19,VALID,0,
2010-04-11, 01:27:04,VALID,1007.97,VALID,0,VALID,98.9747,VALID,0.105969,VALID,24.1988,VALID,19,VALID,0,
2010-04-11, 01:28:04,VALID,1007.97,VALID,0,VALID,98.9442,VALID,0,VALID,24.1793,VALID,19,VALID,0,
2010-04-11, 01:29:04,VALID,1007.94,VALID,0,VALID,98.9899,VALID,0,VALID,24.2007,VALID,19,VALID,0,
2010-04-11, 01:30:04,VALID,1007.91,VALID,0,VALID,98.9823,VALID,0.105969,VALID,24.2007,VALID,19,VALID,0,
2010-04-11, 01:31:04,VALID,1007.89,VALID,0,VALID,99.028,VALID,0,VALID,24.1599,VALID,19,VALID,0,
2010-04-11, 01:32:04,VALID,1007.89,VALID,0,VALID,99.0585,VALID,0,VALID,24.1617,VALID,19,VALID,0,
2010-04-11, 01:33:04,VALID,1007.93,VALID,0,VALID,99.0662,VALID,0,VALID,24.1209,VALID,19,VALID,0,
2010-04-11, 01:34:04,VALID,1007.89,VALID,0,VALID,99.0738,VALID,0,VALID,24.1014,VALID,19,VALID,0,
2010-04-11, 01:35:04,VALID,1007.92,VALID,0,VALID,99.0738,VALID,0.105969,VALID,24.1227,VALID,19,VALID,0,
2010-04-11, 01:36:04,VALID,1007.91,VALID,0,VALID,99.0738,VALID,0,VALID,24.1227,VALID,19,VALID,0,
2010-04-11, 01:37:04,VALID,1007.9,VALID,0,VALID,99.0662,VALID,0.105969,VALID,24.1014,VALID,19,VALID,0,
2010-04-11, 01:38:04,VALID,1007.92,VALID,0,VALID,99.0738,VALID,0.105969,VALID,24.0606,VALID,19,VALID,0,
2010-04-11, 01:39:04,VALID,1007.92,VALID,0,VALID,99.0738,VALID,0.105969,VALID,24.1014,VALID,19,VALID,0,
2010-04-11, 01:40:04,VALID,1007.91,VALID,0,VALID,99.0738,VALID,0.105969,VALID,24.1209,VALID,19,VALID,0,
2010-04-11, 01:41:04,VALID,1007.9,VALID,0,VALID,99.1043,VALID,0.105969,VALID,24.1014,VALID,19,VALID,0.121094,
2010-04-11, 01:42:04,VALID,1007.87,VALID,0,VALID,99.0585,VALID,0,VALID,24.1227,VALID,19,VALID,0.16875,
2010-04-11, 01:43:04,VALID,1007.86,VALID,0,VALID,99.0662,VALID,0,VALID,24.1227,VALID,86,VALID,0.391406,
2010-04-11, 01:44:04,VALID,1007.82,VALID,0,VALID,99.1195,VALID,0.105969,VALID,24.0819,VALID,86,VALID,0.364844,
2010-04-11, 01:45:04,VALID,1007.79,VALID,0,VALID,99.1043,VALID,0,VALID,24.0837,VALID,86,VALID,0.0503906,
2010-04-11, 01:46:04,VALID,1007.77,VALID,0,VALID,99.0814,VALID,0,VALID,24.0837,VALID,86,VALID,0.325391,
2010-04-11, 01:47:04,VALID,1007.75,VALID,0,VALID,99.0738,VALID,0,VALID,24.1032,VALID,86,VALID,0.444922,
2010-04-11, 01:48:04,VALID,1007.73,VALID,0,VALID,99.1043,VALID,0,VALID,24.0837,VALID,118,VALID,0.442187,
2010-04-11, 01:49:04,VALID,1007.74,VALID,0,VALID,99.0814,VALID,0,VALID,24.0837,VALID,118,VALID,0.132031,
2010-04-11, 01:50:04,VALID,1007.74,VALID,0,VALID,99.1043,VALID,0,VALID,24.1051,VALID,128,VALID,0.504297,
2010-04-11, 01:51:04,VALID,1007.73,VALID,0,VALID,99.1195,VALID,0,VALID,24.0856,VALID,128,VALID,0.479297,
2010-04-11, 01:52:04,VALID,1007.7,VALID,0,VALID,99.1119,VALID,0,VALID,24.0856,VALID,165,VALID,0.464453,
2010-04-11, 01:53:04,VALID,1007.71,VALID,0,VALID,99.1043,VALID,0,VALID,24.0643,VALID,165,VALID,0.563281,
2010-04-11, 01:54:04,VALID,1007.71,VALID,0,VALID,99.1043,VALID,0,VALID,24.0448,VALID,165,VALID,0.394922,
2010-04-11, 01:55:04,VALID,1007.67,VALID,0,VALID,99.0967,VALID,0,VALID,24.0661,VALID,165,VALID,0.15625,
2010-04-11, 01:56:04,VALID,1007.65,VALID,0,VALID,99.0814,VALID,0,VALID,24.0643,VALID,165,VALID,0,
2010-04-11, 01:57:04,VALID,1007.66,VALID,0,VALID,99.0814,VALID,0,VALID,24.0448,VALID,165,VALID,0,
2010-04-11, 01:58:04,VALID,1007.62,VALID,0,VALID,99.089,VALID,0,VALID,24.0448,VALID,165,VALID,0,
2010-04-11, 01:59:04,VALID,1007.65,VALID,0,VALID,99.089,VALID,0,VALID,24.0643,VALID,165,VALID,0,
2010-04-11, 02:00:04,VALID,1007.62,VALID,0,VALID,99.0738,VALID,0.105969,VALID,24.0837,VALID,111,VALID,0,
2010-04-11, 02:01:04,VALID,1007.59,VALID,0,VALID,99.0814,VALID,0.105969,VALID,24.0624,VALID,75,VALID,0,
2010-04-11, 02:02:04,VALID,1007.57,VALID,0,VALID,99.1043,VALID,0.105969,VALID,24.0837,VALID,75,VALID,0,
2010-04-11, 02:03:04,VALID,1007.55,VALID,0,VALID,99.1119,VALID,0,VALID,24.0643,VALID,75,VALID,0,
2010-04-11, 02:04:04,VALID,1007.54,VALID,0,VALID,99.1272,VALID,0.105969,VALID,24.0624,VALID,75,VALID,0,
2010-04-11, 02:05:04,VALID,1007.52,VALID,0,VALID,99.1348,VALID,0.105969,VALID,24.0837,VALID,75,VALID,0,
2010-04-11, 02:06:04,VALID,1007.5,VALID,0,VALID,99.1119,VALID,0,VALID,24.0837,VALID,75,VALID,0,
2010-04-11, 02:07:04,VALID,1007.51,VALID,0,VALID,99.1119,VALID,0,VALID,24.0624,VALID,75,VALID,0,
2010-04-11, 02:08:04,VALID,1007.49,VALID,0,VALID,99.1119,VALID,0,VALID,24.1032,VALID,75,VALID,0,
2010-04-11, 02:09:04,VALID,1007.51,VALID,0,VALID,99.1119,VALID,0,VALID,24.0837,VALID,75,VALID,0,
2010-04-11, 02:10:04,VALID,1007.53,VALID,0,VALID,99.1348,VALID,0,VALID,24.0624,VALID,75,VALID,0,
2010-04-11, 02:11:04,VALID,1007.48,VALID,0,VALID,99.0662,VALID,0.105969,VALID,24.0837,VALID,75,VALID,0,
2010-04-11, 02:12:04,VALID,1007.47,VALID,0,VALID,98.9975,VALID,0,VALID,24.0837,VALID,75,VALID,0,
2010-04-11, 02:13:04,VALID,1007.46,VALID,0,VALID,99.0052,VALID,0.105969,VALID,24.0837,VALID,75,VALID,0,
2010-04-11, 02:14:04,VALID,1007.43,VALID,0,VALID,99.0052,VALID,0.105969,VALID,24.0837,VALID,75,VALID,0,
2010-04-11, 02:15:04,VALID,1007.41,VALID,0,VALID,98.9823,VALID,0,VALID,24.0837,VALID,76,VALID,0,
2010-04-11, 02:16:04,VALID,1007.36,VALID,0,VALID,98.9594,VALID,0,VALID,24.0643,VALID,147,VALID,0.565234,
2010-04-11, 02:17:04,VALID,1007.41,VALID,0,VALID,98.9747,VALID,0,VALID,24.0643,VALID,156,VALID,0.469141,
2010-04-11, 02:18:04,VALID,1007.38,VALID,0,VALID,98.9747,VALID,0,VALID,24.0643,VALID,156,VALID,0.239844,
2010-04-11, 02:19:04,VALID,1007.43,VALID,0,VALID,98.9899,VALID,0,VALID,24.0837,VALID,156,VALID,0,
2010-04-11, 02:20:04,VALID,1007.42,VALID,0,VALID,98.9975,VALID,0,VALID,24.0643,VALID,156,VALID,0.0285156,
2010-04-11, 02:21:04,VALID,1007.42,VALID,0,VALID,98.9594,VALID,0,VALID,24.1051,VALID,156,VALID,0,
2010-04-11, 02:22:04,VALID,1007.4,VALID,0,VALID,98.9747,VALID,0,VALID,24.0837,VALID,156,VALID,0,
2010-04-11, 02:23:04,VALID,1007.41,VALID,0,VALID,98.9823,VALID,0,VALID,24.1051,VALID,156,VALID,0,
2010-04-11, 02:24:04,VALID,1007.42,VALID,0,VALID,98.9747,VALID,0,VALID,24.1032,VALID,156,VALID,0,
2010-04-11, 02:25:04,VALID,1007.43,VALID,0,VALID,98.9899,VALID,0,VALID,24.1032,VALID,156,VALID,0,
2010-04-11, 02:26:04,VALID,1007.42,VALID,0,VALID,98.967,VALID,0,VALID,24.144,VALID,156,VALID,0,
2010-04-11, 02:27:04,VALID,1007.39,VALID,0,VALID,98.9899,VALID,0,VALID,24.1227,VALID,156,VALID,0,
2010-04-11, 02:28:04,VALID,1007.38,VALID,0,VALID,98.9823,VALID,0,VALID,24.1227,VALID,156,VALID,0,
2010-04-11, 02:29:04,VALID,1007.37,VALID,0,VALID,98.967,VALID,0,VALID,24.1227,VALID,156,VALID,0,
2010-04-11, 02:30:04,VALID,1007.37,VALID,0,VALID,98.9899,VALID,0,VALID,24.1014,VALID,156,VALID,0,
2010-04-11, 02:31:04,VALID,1007.34,VALID,0,VALID,99.0128,VALID,0.105969,VALID,24.1209,VALID,163,VALID,0.591016,
2010-04-11, 02:32:04,VALID,1007.32,VALID,0,VALID,98.9899,VALID,0.105969,VALID,24.1209,VALID,173,VALID,0.675391,
2010-04-11, 02:33:04,VALID,1007.3,VALID,0,VALID,98.9975,VALID,0.105969,VALID,24.1014,VALID,174,VALID,0.773828,
2010-04-11, 02:34:04,VALID,1007.3,VALID,0,VALID,98.9823,VALID,0.105969,VALID,24.1209,VALID,174,VALID,0.713281,
2010-04-11, 02:35:04,VALID,1007.26,VALID,0,VALID,98.9975,VALID,0,VALID,24.1227,VALID,174,VALID,0.770703,
2010-04-11, 02:36:04,VALID,1007.26,VALID,0,VALID,99.0204,VALID,0,VALID,24.0819,VALID,155,VALID,0.655859,
2010-04-11, 02:37:04,VALID,1007.24,VALID,0,VALID,98.9899,VALID,0,VALID,24.0837,VALID,154,VALID,0.640234,
2010-04-11, 02:38:04,VALID,1007.22,VALID,0,VALID,98.9594,VALID,0,VALID,24.0819,VALID,141,VALID,0.384375,
2010-04-11, 02:39:04,VALID,1007.22,VALID,0,VALID,98.967,VALID,0.105969,VALID,24.0819,VALID,139,VALID,0.316797,
2010-04-11, 02:40:04,VALID,1007.25,VALID,0,VALID,98.9594,VALID,0.105969,VALID,24.0819,VALID,138,VALID,0.369141,
2010-04-11, 02:41:04,VALID,1007.25,VALID,0,VALID,98.9518,VALID,0,VALID,24.1014,VALID,138,VALID,0.2125,
2010-04-11, 02:42:04,VALID,1007.25,VALID,0,VALID,98.9365,VALID,0.105969,VALID,24.1404,VALID,127,VALID,0.388672,
2010-04-11, 02:43:04,VALID,1007.24,VALID,0,VALID,98.9289,VALID,0.105969,VALID,24.1404,VALID,110,VALID,0.544531,
2010-04-11, 02:44:04,VALID,1007.23,VALID,0,VALID,98.9213,VALID,0.105969,VALID,24.1404,VALID,116,VALID,0.516797,
2010-04-11, 02:45:04,VALID,1007.25,VALID,0,VALID,98.9518,VALID,0,VALID,24.1599,VALID,117,VALID,0.540625,
2010-04-11, 02:46:04,VALID,1007.25,VALID,0,VALID,98.9518,VALID,0.105969,VALID,24.1812,VALID,120,VALID,0.407422,
2010-04-11, 02:47:04,VALID,1007.26,VALID,0,VALID,98.9442,VALID,0,VALID,24.1988,VALID,119,VALID,0.705469,
2010-04-11, 02:48:04,VALID,1007.25,VALID,0,VALID,98.9594,VALID,0.105969,VALID,24.2183,VALID,119,VALID,0.664063,
2010-04-11, 02:49:04,VALID,1007.26,VALID,0,VALID,98.9747,VALID,0,VALID,24.1988,VALID,119,VALID,0.791016,
2010-04-11, 02:50:04,VALID,1007.31,VALID,0,VALID,98.9975,VALID,0,VALID,24.2183,VALID,128,VALID,0.843359,
2010-04-11, 02:51:04,VALID,1007.29,VALID,0,VALID,98.9975,VALID,0.105969,VALID,24.2396,VALID,132,VALID,1.00117,
2010-04-11, 02:52:04,VALID,1007.3,VALID,0,VALID,99.0128,VALID,0.105969,VALID,24.2183,VALID,128,VALID,1.01406,
2010-04-11, 02:53:04,VALID,1007.32,VALID,0,VALID,99.0204,VALID,0.105969,VALID,24.2183,VALID,114,VALID,0.882031,
2010-04-11, 02:54:04,VALID,1007.34,VALID,0,VALID,99.0357,VALID,0,VALID,24.2183,VALID,99,VALID,0.721484,
2010-04-11, 02:55:04,VALID,1007.32,VALID,0,VALID,99.0585,VALID,0.105969,VALID,24.2396,VALID,124,VALID,0.594531,
2010-04-11, 02:56:04,VALID,1007.31,VALID,0,VALID,99.0738,VALID,0,VALID,24.1988,VALID,124,VALID,0.340234,
2010-04-11, 02:57:04,VALID,1007.32,VALID,0,VALID,99.1043,VALID,0.105969,VALID,24.1599,VALID,147,VALID,1.05742,
2010-04-11, 02:58:04,VALID,1007.33,VALID,0,VALID,99.1119,VALID,0.105969,VALID,24.1404,VALID,152,VALID,0.895312,
2010-04-11, 02:59:04,VALID,1007.32,VALID,0,VALID,99.1043,VALID,0.105969,VALID,24.1209,VALID,152,VALID,0.384375,
2010-04-11, 03:00:04,VALID,1007.36,VALID,0,VALID,99.1043,VALID,0.105969,VALID,24.1014,VALID,170,VALID,0.644141,
2010-04-11, 03:01:04,VALID,1007.39,VALID,0,VALID,99.1043,VALID,0,VALID,24.0819,VALID,170,VALID,0.483984,
2010-04-11, 03:02:04,VALID,1007.42,VALID,0,VALID,99.1043,VALID,0.105969,VALID,24.0819,VALID,167,VALID,0.321875,
2010-04-11, 03:03:04,VALID,1007.44,VALID,0,VALID,99.1043,VALID,0.105969,VALID,24.0819,VALID,167,VALID,0.276563,
2010-04-11, 03:04:04,VALID,1007.48,VALID,0,VALID,99.0967,VALID,0.105969,VALID,24.1014,VALID,167,VALID,0.182812,
2010-04-11, 03:05:04,VALID,1007.46,VALID,0,VALID,99.0967,VALID,0.105969,VALID,24.1227,VALID,167,VALID,0,
2010-04-11, 03:06:04,VALID,1007.47,VALID,0,VALID,99.089,VALID,0,VALID,24.1209,VALID,167,VALID,0,
2010-04-11, 03:07:04,VALID,1007.5,VALID,0,VALID,99.1043,VALID,0,VALID,24.1209,VALID,167,VALID,0,
2010-04-11, 03:08:04,VALID,1007.47,VALID,0,VALID,99.1043,VALID,0,VALID,24.1014,VALID,167,VALID,0.319531,
2010-04-11, 03:09:04,VALID,1007.46,VALID,0,VALID,99.1043,VALID,0.105969,VALID,24.1014,VALID,167,VALID,0,
2010-04-11, 03:10:04,VALID,1007.46,VALID,0,VALID,99.1043,VALID,0,VALID,24.1422,VALID,167,VALID,0,
2010-04-11, 03:11:04,VALID,1007.44,VALID,0,VALID,99.0967,VALID,0.105969,VALID,24.1209,VALID,167,VALID,0,
2010-04-11, 03:12:04,VALID,1007.43,VALID,0,VALID,99.1272,VALID,0,VALID,24.1209,VALID,167,VALID,0,
2010-04-11, 03:13:04,VALID,1007.41,VALID,0,VALID,99.1195,VALID,0,VALID,24.1404,VALID,113,VALID,0,
2010-04-11, 03:14:04,VALID,1007.39,VALID,0,VALID,99.1272,VALID,0.105969,VALID,24.1812,VALID,132,VALID,0.767578,
2010-04-11, 03:15:04,VALID,1007.38,VALID,0,VALID,99.1272,VALID,0,VALID,24.1617,VALID,117,VALID,0.569141,
2010-04-11, 03:16:04,VALID,1007.4,VALID,0,VALID,99.15,VALID,0,VALID,24.1812,VALID,116,VALID,0.512109,
2010-04-11, 03:17:04,VALID,1007.41,VALID,0,VALID,99.1653,VALID,0,VALID,24.1617,VALID,104,VALID,0.445703,
2010-04-11, 03:18:04,VALID,1007.39,VALID,0,VALID,99.1805,VALID,0,VALID,24.2007,VALID,104,VALID,0.251953,
2010-04-11, 03:19:04,VALID,1007.39,VALID,0,VALID,99.1729,VALID,0,VALID,24.1812,VALID,104,VALID,0.0433594,
2010-04-11, 03:20:04,VALID,1007.39,VALID,0,VALID,99.1729,VALID,0,VALID,24.1812,VALID,117,VALID,0.532812,
2010-04-11, 03:21:04,VALID,1007.42,VALID,0,VALID,99.1729,VALID,0,VALID,24.2025,VALID,156,VALID,0.533984,
2010-04-11, 03:22:04,VALID,1007.39,VALID,0,VALID,99.1958,VALID,0,VALID,24.1812,VALID,154,VALID,0.553906,
2010-04-11, 03:23:04,VALID,1007.39,VALID,0,VALID,99.2034,VALID,0,VALID,24.1617,VALID,154,VALID,0.396094,
2010-04-11, 03:24:04,VALID,1007.38,VALID,0,VALID,99.1958,VALID,0,VALID,24.1422,VALID,154,VALID,0.416406,
2010-04-11, 03:25:04,VALID,1007.38,VALID,0,VALID,99.1729,VALID,0,VALID,24.1617,VALID,154,VALID,0.474219,
2010-04-11, 03:26:04,VALID,1007.38,VALID,0,VALID,99.1653,VALID,0,VALID,24.1617,VALID,153,VALID,0.18125,
2010-04-11, 03:27:04,VALID,1007.36,VALID,0,VALID,99.15,VALID,0,VALID,24.183,VALID,115,VALID,0.679297,
2010-04-11, 03:28:04,VALID,1007.34,VALID,0,VALID,99.1882,VALID,0,VALID,24.1812,VALID,121,VALID,0.816016,
2010-04-11, 03:29:04,VALID,1007.36,VALID,0,VALID,99.1729,VALID,0,VALID,24.2025,VALID,127,VALID,0.748438,
2010-04-11, 03:30:04,VALID,1007.38,VALID,0,VALID,99.1729,VALID,0.105969,VALID,24.1988,VALID,135,VALID,0.623828,
2010-04-11, 03:31:04,VALID,1007.36,VALID,0,VALID,99.1805,VALID,0.105969,VALID,24.1988,VALID,138,VALID,0.852734,
2010-04-11, 03:32:04,VALID,1007.33,VALID,0,VALID,99.1805,VALID,0.105969,VALID,24.1988,VALID,125,VALID,0.559375,
2010-04-11, 03:33:04,VALID,1007.34,VALID,0,VALID,99.1805,VALID,0,VALID,24.2202,VALID,123,VALID,0.439453,
2010-04-11, 03:34:04,VALID,1007.33,VALID,0,VALID,99.1882,VALID,0,VALID,24.2202,VALID,115,VALID,0.677734,
2010-04-11, 03:35:04,VALID,1007.31,VALID,0,VALID,99.1729,VALID,0.105969,VALID,24.1988,VALID,111,VALID,0.426172,
2010-04-11, 03:36:04,VALID,1007.33,VALID,0,VALID,99.1805,VALID,0.105969,VALID,24.2183,VALID,111,VALID,0.046875,
2010-04-11, 03:37:04,VALID,1007.33,VALID,0,VALID,99.1805,VALID,0.105969,VALID,24.2183,VALID,111,VALID,0.0613281,
2010-04-11, 03:38:04,VALID,1007.28,VALID,0,VALID,99.1882,VALID,0.105969,VALID,24.2183,VALID,111,VALID,0,
2010-04-11, 03:39:04,VALID,1007.28,VALID,0,VALID,99.1729,VALID,0,VALID,24.2396,VALID,112,VALID,0,
2010-04-11, 03:40:04,VALID,1007.24,VALID,0,VALID,99.1958,VALID,0.105969,VALID,24.2183,VALID,112,VALID,0.407422,
2010-04-11, 03:41:04,VALID,1007.26,VALID,0,VALID,99.1882,VALID,0,VALID,24.1988,VALID,141,VALID,0.813672,
2010-04-11, 03:42:04,VALID,1007.26,VALID,0,VALID,99.1882,VALID,0.105969,VALID,24.1988,VALID,140,VALID,0.586719,
2010-04-11, 03:43:04,VALID,1007.27,VALID,0,VALID,99.1882,VALID,0.105969,VALID,24.2396,VALID,119,VALID,0.489844,
2010-04-11, 03:44:04,VALID,1007.25,VALID,0,VALID,99.1729,VALID,0.105969,VALID,24.1988,VALID,124,VALID,0.664063,
2010-04-11, 03:45:04,VALID,1007.27,VALID,0,VALID,99.1577,VALID,0,VALID,24.1812,VALID,91,VALID,0.807031,